Location: *
(43.7000°S, 168.7000°W)
Time: 11:22:32
(UTC+00:00)

Cosmos 1697 Rocket - Pass Details

Date: 07 July 2020
Orbit: 834 x 842 km, 71.0° (Epoch: 09 August)

Event Time Altitude Azimuth Distance (km) Brightness Sun altitude
Rises 18:03:00 0° 314° (NW) 3,382 5.6 -8.0°
Reaches altitude 10° 18:05:35 10° 306° (NW) 2,456 4.8 -7.6°
Maximum altitude 18:10:50 39° 237° (WSW) 1,244 3.1 -6.7°
Drops below altitude 10° 18:16:11 10° 168° (SSE) 2,484 5.0 -5.8°
Sets 18:18:49 0° 160° (SSE) 3,426 5.8 -5.4°
